Overview Statistics Trail Chart Weather Telemetry Raw packets
 

This is the latest recevied weather packets stored in our database for station/object 4S6DRJ-13. If no packets are shown the sender has not sent any weather packets the latest 10 day(s).

<< 130 131 132 133 134 135 136 >>
Time Temp. Humidity Pressure Rain* Wind** Luminosity Snow
1788263878 30.56° C 73% 1008.2 hPa 0 mm 0.89 m/s, 212° 87 W/m² -
1788263818 30.56° C 73% 1008.2 hPa 0 mm 1.34 m/s, 263° 96 W/m² -
1788263756 30.56° C 72% 1008.3 hPa 0 mm 2.24 m/s, 174° 105 W/m² -
1788263695 30.56° C 73% 1008.3 hPa 0 mm 0.45 m/s, 216° 123 W/m² -
1788263634 30.56° C 73% 1008.3 hPa 0 mm 1.34 m/s, 203° 144 W/m² -
1788263573 30.56° C 73% 1008.2 hPa 0 mm 0.89 m/s, 223° 138 W/m² -
1788263512 30.56° C 73% 1008.2 hPa 0 mm 0 m/s 141 W/m² -
1788263451 30.56° C 73% 1008.3 hPa 0 mm 1.34 m/s, 216° 160 W/m² -
1788263390 30.56° C 73% 1008.3 hPa 0 mm 0.89 m/s, 349° 178 W/m² -
1788263329 30.56° C 73% 1008.1 hPa 0 mm 1.34 m/s, 232° 162 W/m² -
1788263268 30.56° C 73% 1008.1 hPa 0 mm 1.34 m/s, 249° 168 W/m² -
1788263207 30.56° C 73% 1008.2 hPa 0 mm 0.89 m/s, 255° 172 W/m² -
1788263146 30.56° C 74% 1008.2 hPa 0 mm 0.89 m/s, 158° 174 W/m² -
1788263085 30.56° C 74% 1007.9 hPa 0 mm 0 m/s 181 W/m² -
1788263024 30.56° C 74% 1008.1 hPa 0 mm 0.89 m/s, 263° 181 W/m² -
1788262963 30.56° C 74% 1008 hPa 0 mm 1.79 m/s, 282° 166 W/m² -
1788262902 30.56° C 74% 1008.1 hPa 0 mm 0 m/s 191 W/m² -
1788262841 30.56° C 74% 1008 hPa 0 mm 0.89 m/s, 238° 211 W/m² -
1788262780 30.56° C 73% 1008.2 hPa 0 mm 1.79 m/s, 223° 219 W/m² -
1788262719 30.56° C 73% 1008.2 hPa 0 mm 0.89 m/s, 243° 192 W/m² -
1788262658 30.56° C 73% 1008.1 hPa 0 mm 1.34 m/s, 254° 132 W/m² -
1788262536 30.56° C 73% 1008 hPa 0 mm 2.24 m/s, 40° 241 W/m² -
1788262475 30.56° C 73% 1008.1 hPa 0 mm 2.68 m/s, 254° 213 W/m² -
1788262414 30.56° C 73% 1008.1 hPa 0 mm 2.68 m/s, 213° 210 W/m² -
1788262353 30.56° C 73% 1008 hPa 0 mm 3.13 m/s, 305° 221 W/m² -

* Rain latest hour (hover to see other rain measurements)
** Current wind speed in m/s (hover to see current wind gust speed)